AAL1821 KBWI-KCLT

Flight info

Callsign AAL1821
Flight time N/A
Altitude 30000
Route TERPZ8 GLANC AIROW CHSLY6
Aircraft B738/M-SDE2E3FGHIRWXY/LB1

Departure

Time 2026-05-01 15:24
Airport Baltimore/Washington International Thurgood Marshall Airport (KBWI)

Arrival

Time N/A
Airport Charlotte Douglas International Airport (KCLT)
Time Latitude Longitude Altitude Speed Heading
2026-05-01 14:50 39.17750 -76.66758 158 ft 0 kts 40°
2026-05-01 15:12 39.17739 -76.66771 157 ft 4 kts 43°
2026-05-01 15:12 39.17722 -76.66796 157 ft 4 kts 71°
2026-05-01 15:13 39.17734 -76.66845 157 ft 2 kts 144°
2026-05-01 15:14 39.17734 -76.66844 157 ft 0 kts 144°
2026-05-01 15:17 39.17700 -76.66812 158 ft 8 kts 143°
2026-05-01 15:18 39.17494 -76.66843 158 ft 13 kts 221°
2026-05-01 15:18 39.17474 -76.66952 159 ft 14 kts 280°
2026-05-01 15:19 39.17671 -76.67223 157 ft 14 kts 323°
2026-05-01 15:19 39.17825 -76.67364 154 ft 13 kts 324°
2026-05-01 15:19 39.17898 -76.67432 154 ft 13 kts 323°
2026-05-01 15:20 39.18037 -76.67562 157 ft 12 kts 326°
2026-05-01 15:20 39.18106 -76.67624 158 ft 12 kts 324°
2026-05-01 15:20 39.18171 -76.67684 161 ft 12 kts 324°
2026-05-01 15:21 39.18235 -76.67743 162 ft 11 kts 324°
2026-05-01 15:21 39.18298 -76.67801 161 ft 11 kts 324°
2026-05-01 15:21 39.18359 -76.67857 161 ft 11 kts 324°
2026-05-01 15:21 39.18417 -76.67913 162 ft 10 kts 323°
2026-05-01 15:22 39.18534 -76.68025 158 ft 11 kts 323°
2026-05-01 15:22 39.18563 -76.68110 159 ft 11 kts 259°
2026-05-01 15:22 39.18505 -76.68153 158 ft 11 kts 166°
2026-05-01 15:23 39.18441 -76.68109 159 ft 10 kts 145°
2026-05-01 15:23 39.18263 -76.67945 162 ft 68 kts 144°
2026-05-01 15:23 39.17672 -76.67397 159 ft 139 kts 144°
2026-05-01 15:23 39.16768 -76.66552 511 ft 167 kts 143°
2026-05-01 15:24 39.15844 -76.65667 1474 ft 165 kts 145°
2026-05-01 15:24 39.14831 -76.64926 2207 ft 176 kts 165°
2026-05-01 15:24 39.13527 -76.64957 2539 ft 205 kts 202°
2026-05-01 15:24 39.12462 -76.66262 2771 ft 227 kts 247°
2026-05-01 15:25 39.12361 -76.68293 3316 ft 234 kts 287°
2026-05-01 15:25 39.13238 -76.70026 4031 ft 235 kts 321°
2026-05-01 15:25 39.14538 -76.71274 4991 ft 231 kts 322°
2026-05-01 15:25 39.15796 -76.72554 5929 ft 232 kts 320°
2026-05-01 15:26 39.17053 -76.73880 6789 ft 234 kts 319°
2026-05-01 15:26 39.18284 -76.75226 7560 ft 237 kts 315°
2026-05-01 15:26 39.19160 -76.77012 8213 ft 245 kts 287°
2026-05-01 15:26 39.19508 -76.79227 8744 ft 257 kts 279°
2026-05-01 15:27 39.19790 -76.81540 9024 ft 264 kts 279°
2026-05-01 15:27 39.20107 -76.83880 9724 ft 266 kts 280°
2026-05-01 15:27 39.20441 -76.86225 10514 ft 270 kts 280°
2026-05-01 15:28 39.21187 -76.91396 10942 ft 317 kts 279°
2026-05-01 15:28 39.21602 -76.94281 11118 ft 338 kts 279°
2026-05-01 15:28 39.22027 -76.97346 11416 ft 354 kts 277°
2026-05-01 15:29 39.22161 -77.03763 12769 ft 360 kts 270°
2026-05-01 15:29 39.22164 -77.06992 13505 ft 362 kts 270°
2026-05-01 15:29 39.21085 -77.13310 14807 ft 371 kts 242°
2026-05-01 15:30 39.17433 -77.18038 16188 ft 384 kts 217°
2026-05-01 15:31 39.08278 -77.25455 18549 ft 394 kts 217°
2026-05-01 15:31 39.03443 -77.28901 19535 ft 400 kts 214°
2026-05-01 15:32 38.98510 -77.32271 20541 ft 403 kts 214°
2026-05-01 15:32 38.93577 -77.35680 21474 ft 407 kts 215°
2026-05-01 15:33 38.86073 -77.40911 22820 ft 411 kts 216°
2026-05-01 15:34 38.78478 -77.46198 24033 ft 416 kts 217°